[[{"header":{"parameterUnit":"m.s-1","parameterCategory":1,"la1":30.2991,"la2":30.254,"lo1":-89.0895,"lo2":-89.0444,"dy":0.0017,"dx":0.0017,"nx":28,"ny":28,"refTime":"2025-04-18T21:00:00:Z","depth":0,"parameterNumber":2,"parameterNumberName":"U-component_of_WINDS"},"data":[0,0,0,0,0,0,0,0,0,0,0,0,0,0,0,0,0,0,0,0,0,0,0,0,0,0,0,0,0,0,0,0,0,0,0,0,0,0,0,0,0,0,0,0,0,0,0,0,0,0,0,0,0,0,0,0,0,0,-3.9493,-3.9494,0,-3.9634,-3.9636,-3.9637,-3.9662,-3.9661,-3.966,-3.9659,-3.9805,-3.981,-3.9815,0,0,0,0,0,0,0,0,0,0,0,0,0,-3.9246,-3.9251,-3.9493,-3.9494,-3.9496,-3.9634,-3.9636,-3.9638,-3.9662,-3.9661,-3.966,-3.9658,-3.9804,-3.981,-3.9816,0,0,0,0,0,0,0,0,0,0,0,0,0,-3.9367,-3.9252,-3.9492,-3.9525,-3.9529,-3.9634,-3.9636,-3.9638,-3.9663,-3.9661,-3.9659,-3.9657,-3.9802,-3.9809,-3.9817,-3.9899,0,0,-3.984,-3.9843,0,0,0,0,0,0,0,0,-3.936,-3.9376,-3.9518,-3.9523,-3.9528,-3.9629,-3.9603,-3.9726,-3.9663,-3.9612,-3.9659,-3.9657,-3.9748,-3.976,-3.9791,-3.9906,-3.9912,-3.984,-3.9845,-3.9848,-3.985,0,0,0,0,0,0,0,-3.9352,-3.937,-3.9549,-3.952,-3.9526,-3.9533,-3.9549,-3.9626,-3.9689,-3.9616,-3.9619,-3.9635,-3.975,-3.9783,-3.9794,-3.9914,-3.984,-3.9847,-3.9851,-3.9854,-4.0104,-4.0106,0,0,0,0,0,0,-3.9337,-3.9363,-3.9544,-3.9553,-3.9438,-3.9539,-3.9556,-3.9598,-3.9688,-3.97,-3.9636,-3.9636,-3.9771,-3.9785,-3.9799,-3.9901,-3.9848,-3.9855,-3.9859,-4.0102,-4.0105,-4.0107,0,0,0,0,0,0,-3.9332,-3.9353,-3.9538,-3.9459,-3.9483,-3.9545,-3.9592,-3.9602,-3.9635,-3.9703,-3.9714,-3.9658,-3.977,-3.9789,-3.9874,-3.9906,-3.9858,-3.9865,-4.01,-4.0103,-4.0106,-4.0105,0,0,0,0,0,0,-3.9325,-3.9351,-3.9382,-3.9459,-3.9487,-3.9609,-3.9594,-3.9606,-3.9647,-3.9648,-3.9726,-3.9737,-3.977,-3.9862,-3.9881,-3.9916,-3.9871,-4.0097,-4.0101,-4.0105,-4.0102,-4.0108,-4.0112,0,0,0,0,0,-3.9316,-3.9376,-3.9383,-3.9405,-3.9527,-3.9611,-3.9627,-3.9663,-3.965,-3.9682,-3.9726,-3.9735,-3.9901,-3.9871,-3.9892,-3.993,-4.0095,-4.01,-4.0105,-4.01,-4.0106,-4.0112,0,0,0,0,0,0,-3.9301,-3.9387,-3.9396,-3.9483,-3.954,-3.9615,-3.9656,-3.9669,-3.9731,-3.9729,-3.9772,-3.979,-3.9872,-3.991,-3.9876,-4.0014,-3.9997,-4.0006,-3.9986,-3.9993,-3.9998,-3.9986,-3.9877,0,0,0,0,0,-3.9309,-3.9369,-3.9441,-3.9511,-3.9539,-3.9593,-3.9631,-3.9654,-3.9715,-3.9739,-3.9789,-3.9849,-3.9914,-3.9956,-4.002,-4.0109,-4.0126,-4.0146,-4.015,-4.0154,-4.0161,-4.0211,-4.022,-4.0123,-4.0123,-4.0123,0,0,-3.9323,-3.9378,-3.9413,-3.951,-3.9556,-3.9619,-3.9613,-3.9679,-3.9726,-3.975,-3.9832,-3.9872,-3.9941,-4.0028,-4.0069,-4.0062,-4.0192,-4.016,-4.0163,-4.0168,-4.0217,-4.0226,-4.0234,-4.0126,-4.0126,-4.0125,0,0,-3.9382,-3.943,-3.9493,-3.954,-3.9611,-3.9647,-3.9662,-3.9736,-3.9763,-3.9847,-3.9866,-3.9923,-4.0035,-4.0083,-4.0122,-4.0202,-4.0212,-4.0222,-4.0247,-4.0295,-4.0303,-4.031,-4.0337,-4.0346,-4.0229,-4.0229,-4.0229,0,-3.9391,-3.9485,-3.9524,-3.9589,-3.9631,-3.9656,-3.9721,-3.9765,-3.9853,-3.9882,-3.9873,-4.0014,-4.0063,-4.0161,-4.0181,-4.0212,-4.0231,-4.0212,-4.0298,-4.0306,-4.0313,-4.0339,-4.035,-4.023,-4.023,-4.023,-4.023,0,-3.9493,-3.9558,-3.9601,-3.9685,-3.9733,-3.9797,-3.9846,-3.989,-3.991,-3.9947,-4.0033,-4.0092,-4.0168,-4.0194,-4.0215,-4.0297,-4.029,-4.029,-4.0272,-4.0322,-4.0347,-4.0358,-4.023,-4.023,-4.023,-4.023,0,0,-3.9544,-3.9649,-3.9664,-3.9703,-3.9784,-3.9835,-3.9902,-3.9977,-4.0013,-4.0074,-4.0131,-4.0226,-4.0226,-4.0271,-4.0298,-4.034,-4.0398,-4.0335,-4.0337,-4.0343,-4.0491,-4.0489,-4.05,-4.0407,-4.0409,-4.0411,-4.0485,0,-3.961,-3.9728,-3.9766,-3.9865,-3.9926,-3.9952,-4.001,-4.0067,-4.0104,-4.0162,-4.0204,-4.027,-4.0266,-4.0293,-4.0336,-4.0382,-4.0428,-4.0377,-4.046,-4.0462,-4.0439,-4.0514,-4.0512,-4.0579,-4.0495,-4.0497,-4.0499,0,-3.9703,-3.9765,-3.9869,-3.9943,-3.997,-4.0022,-4.0093,-4.0149,-4.0214,-4.0238,-4.0289,-4.0313,-4.0384,-4.0365,-4.0465,-4.043,-4.0467,-4.0494,-4.0498,-4.0505,-4.0481,-4.0521,-4.0601,-4.061,-4.0515,-4.0514,-4.0512,0,-3.9727,-3.9837,-3.9914,-3.9947,-4.0035,-4.0071,-4.0109,-4.0173,-4.0216,-4.0279,-4.0307,-4.0379,-4.0417,-4.0473,-4.0515,-4.0498,-4.0611,-4.0596,-4.0633,-4.0632,-4.0653,-4.0651,-4.0738,-4.0681,-4.0681,-4.0681,-4.068,0,-3.9796,-3.9858,-3.9926,-3.9973,-4.0044,-4.0088,-4.0158,-4.0199,-4.0256,-4.0312,-4.034,-4.0392,-4.0446,-4.0506,-4.0541,-4.0617,-4.0635,-4.0657,-4.0665,-4.0653,-4.065,-4.0676,-4.0671,-4.0683,-4.0683,-4.0682,-4.0682,0,-3.9833,-3.9881,-3.9966,-4.0044,-4.0065,-4.0114,-4.0181,-4.0228,-4.0267,-4.0338,-4.0357,-4.0419,-4.0491,-4.054,-4.0633,-4.0656,-4.0739,-4.0747,-4.0716,-4.0719,-4.0753,-4.0749,-4.0858,-4.0874,-4.0808,-4.0809,-4.0809,0,-3.9873,-3.9921,-4.0004,-4.0043,-4.0082,-4.0145,-4.0189,-4.0235,-4.028,-4.0359,-4.0397,-4.0471,-4.0532,-4.0646,-4.07,-4.0771,-4.078,-4.0814,-4.0791,-4.0777,-4.0779,-4.0774,-4.0779,-4.0816,-4.0817,-4.0817,-4.0817,0,-3.9937,-3.9959,-4.002,-4.009,-4.0142,-4.0199,-4.0257,-4.0288,-4.0345,-4.0394,-4.0468,-4.0515,-4.061,-4.0683,-4.0759,-4.0801,-4.0819,-4.0825,-4.0837,-4.0824,-4.0803,-4.0813,-4.0723,-4.0821,-4.0821,-4.0821,-4.082,-4.082,-3.9976,-4.002,-4.0085,-4.0153,-4.0202,-4.0256,-4.0304,-4.035,-4.0412,-4.0491,-4.0516,-4.0592,-4.0659,-4.0763,-4.0806,-4.0867,-4.0864,-4.0882,-4.0886,-4.0889,-4.0888,-4.0795,-4.0882,-4.0882,-4.0882,-4.0882,-4.0882,0,-4.004,-4.0084,-4.0146,-4.0226,-4.028,-4.0293,-4.0358,-4.0402,-4.0469,-4.0529,-4.0589,-4.0674,-4.0745,-4.0805,-4.088,-4.0917,-4.0927,-4.0935,-4.0931,-4.0941,-4.0888,-4.0869,-4.0925,-4.0925,-4.0925,-4.0925,-4.0925,-4.0925,-4.008,-4.0155,-4.0185,-4.0286,-4.033,-4.0404,-4.044,-4.049,-4.0538,-4.0632,-4.0691,-4.073,-4.0791,-4.087,-4.0936,-4.0952,-4.0978,-4.0983,-4.1001,-4.0949,-4.0944,-4.0939,-4.0922,-4.0989,-4.0989,-4.1048,-4.1049,-4.1049]},{"header":{"parameterUnit":"m.s-1","parameterCategory":1,"la1":30.2991,"la2":30.254,"lo1":-89.0895,"lo2":-89.0444,"dy":0.0017,"dx":0.0017,"nx":28,"ny":28,"refTime":"2025-04-18T21:00:00:Z","depth":0,"parameterNumber":3,"parameterNumberName":"V-component_of_WINDS"},"data":[0,0,0,0,0,0,0,0,0,0,0,0,0,0,0,0,0,0,0,0,0,0,0,0,0,0,0,0,0,0,0,0,0,0,0,0,0,0,0,0,0,0,0,0,0,0,0,0,0,0,0,0,0,0,0,0,0,0,3.1007,3.1008,0,3.1068,3.1069,3.107,3.1075,3.1074,3.1073,3.1073,3.1133,3.1135,3.1137,0,0,0,0,0,0,0,0,0,0,0,0,0,3.0893,3.0895,3.1007,3.1008,3.1008,3.1068,3.1069,3.107,3.1075,3.1074,3.1073,3.1072,3.1132,3.1135,3.1137,0,0,0,0,0,0,0,0,0,0,0,0,0,3.0947,3.0895,3.1007,3.1018,3.102,3.1068,3.1069,3.107,3.1075,3.1074,3.1073,3.1072,3.1131,3.1134,3.1138,3.1178,0,0,3.1148,3.1149,0,0,0,0,0,0,0,0,3.0944,3.0951,3.1016,3.1017,3.1019,3.1063,3.1051,3.1106,3.1075,3.1054,3.1073,3.1072,3.111,3.1115,3.1129,3.118,3.1183,3.1148,3.115,3.1152,3.1152,0,0,0,0,0,0,0,3.094,3.0948,3.1031,3.1017,3.1019,3.102,3.1026,3.1061,3.1087,3.1056,3.1056,3.1064,3.1111,3.1125,3.113,3.1184,3.1148,3.1151,3.1153,3.1154,3.1273,3.1274,0,0,0,0,0,0,3.0934,3.0945,3.1029,3.1033,3.0978,3.1023,3.103,3.105,3.1086,3.1091,3.1064,3.1064,3.112,3.1126,3.1132,3.1182,3.1151,3.1155,3.1156,3.1272,3.1273,3.1274,0,0,0,0,0,0,3.0932,3.0942,3.1027,3.0989,3.1,3.1026,3.1048,3.1052,3.1066,3.1093,3.1097,3.1075,3.112,3.1128,3.1167,3.1184,3.1156,3.1159,3.127,3.1272,3.1274,3.1282,0,0,0,0,0,0,3.0929,3.0941,3.0957,3.099,3.1002,3.1061,3.1049,3.1053,3.1072,3.1072,3.1104,3.1108,3.112,3.1162,3.117,3.1188,3.1162,3.1269,3.1271,3.1273,3.1281,3.1284,3.1287,0,0,0,0,0,3.0924,3.0956,3.0957,3.0967,3.1022,3.1062,3.1069,3.1082,3.1074,3.109,3.1107,3.1107,3.1181,3.1166,3.1175,3.1195,3.1268,3.127,3.1273,3.1279,3.1283,3.1287,0,0,0,0,0,0,3.0923,3.096,3.0962,3.1005,3.1031,3.1062,3.1083,3.1086,3.1113,3.1112,3.1127,3.1134,3.1173,3.1188,3.117,3.1236,3.1224,3.1228,3.1225,3.1229,3.1232,3.1228,3.1164,0,0,0,0,0,3.0928,3.0957,3.0988,3.1023,3.1035,3.1057,3.1075,3.1083,3.1109,3.1119,3.114,3.1164,3.1193,3.1212,3.124,3.1283,3.129,3.1301,3.1304,3.1307,3.1311,3.1335,3.1341,3.1283,3.1283,3.1283,0,0,3.0937,3.0962,3.0979,3.1023,3.1043,3.1073,3.1066,3.1097,3.112,3.1124,3.1163,3.1179,3.1207,3.1249,3.1268,3.1262,3.1328,3.131,3.1312,3.1314,3.1338,3.1344,3.1349,3.1285,3.1284,3.1284,0,0,3.0971,3.0992,3.1024,3.1045,3.1077,3.1091,3.1099,3.1131,3.1142,3.1181,3.1186,3.1212,3.1261,3.1282,3.1299,3.1342,3.1343,3.135,3.1367,3.1391,3.1396,3.14,3.1416,3.1421,3.1354,3.1354,3.1354,0,3.0979,3.1025,3.104,3.1072,3.1091,3.1098,3.1131,3.115,3.1188,3.1202,3.1195,3.1258,3.1278,3.1325,3.1335,3.1349,3.1358,3.1346,3.1394,3.1398,3.1402,3.1418,3.1423,3.1355,3.1355,3.1354,3.1354,0,3.1033,3.1065,3.1087,3.1126,3.1148,3.118,3.1199,3.122,3.1226,3.1241,3.1282,3.1306,3.134,3.1351,3.1357,3.1399,3.1395,3.1391,3.1379,3.1408,3.1423,3.1429,3.1356,3.1355,3.1355,3.1355,0,0,3.1067,3.1114,3.1122,3.1141,3.1176,3.1201,3.1233,3.1268,3.1285,3.1311,3.1339,3.1382,3.1379,3.1398,3.1407,3.1428,3.1461,3.1421,3.1422,3.1428,3.1509,3.1512,3.1519,3.1462,3.1463,3.1464,3.1507,0,3.1105,3.1164,3.1179,3.1229,3.1259,3.1266,3.1294,3.1319,3.1335,3.1362,3.1378,3.1408,3.1402,3.1414,3.1435,3.1452,3.1477,3.145,3.1488,3.1489,3.1481,3.1526,3.1529,3.1569,3.1513,3.1514,3.1515,0,3.1156,3.1186,3.1239,3.1273,3.1286,3.1311,3.1344,3.137,3.1399,3.1408,3.1431,3.1438,3.1472,3.1458,3.1505,3.1486,3.1502,3.1514,3.1515,3.152,3.1504,3.1532,3.1581,3.1587,3.1524,3.1523,3.1522,0,3.1176,3.1229,3.1268,3.1283,3.1323,3.1341,3.1358,3.1386,3.1406,3.1434,3.1447,3.1479,3.1496,3.1521,3.1536,3.1525,3.1582,3.157,3.1591,3.1591,3.1603,3.1602,3.1656,3.1613,3.1613,3.1613,3.1613,0,3.1217,3.125,3.1278,3.1302,3.1339,3.1356,3.1391,3.1409,3.1434,3.1461,3.1469,3.1494,3.1513,3.1541,3.1553,3.1591,3.1598,3.1607,3.161,3.1606,3.1605,3.1617,3.1615,3.1615,3.1614,3.1614,3.1614,0,3.1245,3.1266,3.1309,3.1343,3.1353,3.1379,3.1408,3.1431,3.1447,3.1482,3.1491,3.1516,3.1549,3.1567,3.1608,3.1617,3.1659,3.166,3.165,3.1651,3.1672,3.167,3.1735,3.1745,3.1696,3.1696,3.1696,0,3.127,3.1296,3.1334,3.1353,3.1371,3.1402,3.1423,3.1441,3.1462,3.1497,3.1516,3.1551,3.1579,3.1632,3.1653,3.1685,3.1687,3.1708,3.1692,3.1688,3.1688,3.1687,3.169,3.1711,3.1711,3.1712,3.1712,0,3.1313,3.1322,3.1352,3.1386,3.1411,3.1439,3.1466,3.1481,3.1503,3.1526,3.1562,3.1584,3.1627,3.1661,3.1695,3.1712,3.1716,3.1717,3.1724,3.1721,3.1714,3.1719,3.1658,3.1715,3.1715,3.1715,3.1715,3.1715,3.1341,3.1364,3.1395,3.1428,3.1451,3.1476,3.1501,3.152,3.155,3.1587,3.1596,3.1633,3.1661,3.1708,3.1726,3.1755,3.175,3.176,3.1763,3.1765,3.1766,3.1709,3.1761,3.1761,3.1761,3.1761,3.1761,0,3.1384,3.1404,3.1435,3.1474,3.15,3.1503,3.1533,3.1555,3.1588,3.1615,3.1643,3.1684,3.1717,3.1741,3.1775,3.1794,3.1796,3.1802,3.1801,3.1805,3.1768,3.1759,3.1799,3.1799,3.1799,3.1799,3.1799,3.1799,3.141,3.145,3.1463,3.1514,3.1534,3.1572,3.1589,3.1612,3.1634,3.1679,3.1707,3.1723,3.1749,3.1785,3.1816,3.1822,3.1835,3.184,3.1847,3.1811,3.1807,3.1803,3.1795,3.1843,3.1843,3.1881,3.1882,3.1882]}]]